Weather History for McAlester, OK

Change the Weather History Date:

Monday, October 22, 2012

  Actual Average Record
Temperature  
Mean Temperature 75 °F -  
Max Temperature 79 °F 72 °F 88 °F (1963)
Min Temperature 71 °F 50 °F 32 °F (1990)
Cooling Degree Days 10    
Growing Degree Days 25 (Base 50)    
Moisture  
Dew Point 66 °F    
Average Humidity 75    
Maximum Humidity 88    
Minimum Humidity 62    
Precipitation  
Precipitation 0.01 in - - ()
Sea Level Pressure  
Sea Level Pressure 29.91 in    
Wind  
Wind Speed 11 mph (South)    
Max Wind Speed 18 mph    
Max Gust Speed 33 mph    
Visibility 10 miles    
Events Rain , Thunderstorm    
Averages and records for this station are not official NWS values.
T = Trace of Precipitation, MM = Missing Value Source: NWS Daily Summary

Daily Weather History Graph

Daily Weather History Graph

Search for Another Location

Airport:

Trip Planner

Search our weather history database for the weather conditions in past years. The results will help you decide how hot, cold, wet, or windy it might be!

Date:

Astronomy

Oct. 22, 2012 Rise Set
Actual Time 7:35 AM CDT 6:39 PM CDT
Civil Twilight 7:09 AM CDT 7:04 PM CDT
Nautical Twilight 6:40 AM CDT 7:34 PM CDT
Astronomical Twilight 6:10 AM CDT 8:03 PM CDT
Moon 2:33 PM CDT (10/22) 12:39 AM CDT (10/22)
Length of Visible Light 11h 55m
Length of Day
11h 03m
First Quarter, 56% of the Moon is Illuminated
Oct 22
First Quarter
Oct 29
Full
Nov 6
Last Quarter
Nov 13
New
Nov 20
First Quarter

Hourly Weather History & Observations

Time (CDT) Temp. Dew Point Humidity Pressure Visibility Wind Dir Wind Speed Gust Speed Precip Events Conditions
12:53 AM 75.9 °F 66.0 °F 71% 29.86 in 10.0 mi South 8.1 mph 19.6 mph N/A   Partly Cloudy
1:23 AM 75.2 °F 66.2 °F 73% 29.88 in 10.0 mi South 9.2 mph 18.4 mph N/A   Mostly Cloudy
1:32 AM 75.2 °F 66.2 °F 73% 29.88 in 10.0 mi South 9.2 mph 25.3 mph N/A   Scattered Clouds
1:53 AM 75.0 °F 66.0 °F 73% 29.86 in 10.0 mi South 11.5 mph 23.0 mph N/A   Mostly Cloudy
2:03 AM 75.2 °F 66.2 °F 73% 29.88 in 10.0 mi SSE 11.5 mph 24.2 mph N/A   Scattered Clouds
2:51 AM 75.2 °F 66.2 °F 73% 29.89 in 10.0 mi South 11.5 mph 20.7 mph N/A   Mostly Cloudy
2:53 AM 75.0 °F 66.0 °F 73% 29.86 in 10.0 mi South 10.4 mph 21.9 mph N/A   Overcast
3:53 AM 73.9 °F 66.0 °F 76% 29.87 in 10.0 mi South 10.4 mph 21.9 mph N/A   Overcast
4:21 AM 73.4 °F 64.4 °F 73% 29.90 in 10.0 mi South 11.5 mph 23.0 mph N/A   Mostly Cloudy
4:53 AM 73.0 °F 64.9 °F 76% 29.88 in 10.0 mi South 12.7 mph 23.0 mph N/A   Partly Cloudy
5:53 AM 72.0 °F 64.9 °F 78% 29.89 in 10.0 mi South 11.5 mph 21.9 mph N/A   Clear
6:53 AM 71.6 °F 64.4 °F 78% 29.94 in 10.0 mi South 11.5 mph 21.9 mph N/A   Mostly Cloudy
7:35 AM 71.6 °F 64.4 °F 78% 29.94 in 10.0 mi South 12.7 mph 19.6 mph N/A   Mostly Cloudy
7:53 AM 71.1 °F 64.9 °F 81% 29.91 in 10.0 mi South 10.4 mph 21.9 mph N/A   Mostly Cloudy
8:44 AM 73.4 °F 66.2 °F 78% 29.94 in 10.0 mi South 16.1 mph 25.3 mph N/A   Mostly Cloudy
8:53 AM 73.0 °F 66.0 °F 79% 29.92 in 10.0 mi South 12.7 mph 24.2 mph N/A   Mostly Cloudy
9:53 AM 73.9 °F 66.0 °F 76% 29.94 in 10.0 mi South 10.4 mph 25.3 mph N/A   Overcast
10:53 AM 78.1 °F 66.0 °F 66% 29.92 in 10.0 mi South 15.0 mph 32.2 mph N/A   Mostly Cloudy
11:18 AM 78.8 °F 66.2 °F 65% 29.96 in 10.0 mi South 16.1 mph 28.8 mph N/A   Scattered Clouds
11:26 AM 78.8 °F 66.2 °F 65% 29.96 in 10.0 mi SSW 18.4 mph 27.6 mph N/A   Mostly Cloudy
11:53 AM 78.1 °F 66.0 °F 66% 29.95 in 10.0 mi SSW 17.3 mph 27.6 mph N/A   Overcast
12:09 PM 78.8 °F 66.2 °F 65% 29.97 in 10.0 mi SSW 12.7 mph 21.9 mph N/A   Mostly Cloudy
12:53 PM 79.0 °F 64.9 °F 62% 29.95 in 10.0 mi SSW 17.3 mph 33.4 mph N/A   Overcast
1:53 PM 78.1 °F 66.0 °F 66% 29.94 in 10.0 mi SSW 18.4 mph 24.2 mph N/A   Overcast
2:53 PM 78.1 °F 66.0 °F 66% 29.92 in 10.0 mi SSW 16.1 mph 23.0 mph N/A   Mostly Cloudy
3:16 PM 78.8 °F 66.2 °F 65% 29.95 in 10.0 mi SSW 11.5 mph - 0.00 in Rain , Thunderstorm Light Thunderstorms and Rain
3:39 PM 73.4 °F 69.8 °F 88% 29.95 in 5.0 mi South 8.1 mph 17.3 mph 0.01 in Rain Light Rain
3:53 PM 73.9 °F 70.0 °F 87% 29.92 in 10.0 mi South 4.6 mph - 0.01 in   Mostly Cloudy
4:53 PM 75.0 °F 69.1 °F 82% 29.90 in 10.0 mi SSE 4.6 mph - N/A   Mostly Cloudy
5:53 PM 73.9 °F 68.0 °F 82% 29.88 in 10.0 mi SE 6.9 mph - N/A   Partly Cloudy
6:53 PM 73.0 °F 66.9 °F 81% 29.86 in 10.0 mi ESE 4.6 mph - N/A   Clear
7:53 PM 73.4 °F 64.4 °F 73% 29.90 in 10.0 mi SSE 8.1 mph - N/A   Clear
8:53 PM 72.0 °F 66.0 °F 81% 29.91 in 10.0 mi SSE 3.5 mph - N/A   Partly Cloudy
9:25 PM 71.6 °F 66.2 °F 83% 29.94 in 10.0 mi South 3.5 mph - N/A   Mostly Cloudy
9:53 PM 72.0 °F 66.0 °F 81% 29.91 in 10.0 mi SSE 5.8 mph - N/A   Mostly Cloudy
10:53 PM 73.0 °F 66.9 °F 81% 29.92 in 10.0 mi South 8.1 mph - N/A   Mostly Cloudy
11:53 PM 73.0 °F 66.9 °F 81% 29.91 in 10.0 mi SE 9.2 mph - N/A   Overcast